| time (UTC) | temp F | wind direction | speed knots | gust knots | rain 1hr in | rain 24hr in | rain mn in | humidity % | barometer mb |
| 20260906155331 | 85 | 93 | 1.7 | 7.0 | 0.00 | 0.00 | 0.00 | 74 | 1016.0 |
| 20260906154826 | 84 | 93 | 3.5 | 7.0 | 0.00 | 0.00 | 0.00 | 74 | 1016.0 |
| 20260906154816 | 84 | 90 | 3.5 | 8.7 | 0.00 | 0.00 | 0.00 | 74 | 1015.9 |
| 20260906153814 | 84 | 93 | 2.6 | 8.7 | 0.00 | 0.00 | 0.00 | 74 | 1015.9 |
| 20260906153307 | 83 | 98 | 1.7 | 6.1 | 0.00 | 0.00 | 0.00 | 75 | 1015.9 |
| 20260906152800 | 83 | 95 | 1.7 | 6.1 | 0.00 | 0.00 | 0.00 | 78 | 1015.9 |
| 20260906152255 | 83 | 102 | 1.7 | 7.0 | 0.00 | 0.00 | 0.00 | 77 | 1015.8 |
| 20260906151749 | 82 | 95 | 1.7 | 7.0 | 0.00 | 0.00 | 0.00 | 78 | 1015.8 |
| 20260906151243 | 82 | 92 | 1.7 | 6.1 | 0.00 | 0.00 | 0.00 | 80 | 1015.7 |
| 20260906150736 | 80 | 91 | 0.9 | 6.1 | 0.00 | 0.00 | 0.00 | 81 | 1015.7 |
| 20260906150231 | 80 | 85 | 0.9 | 7.0 | 0.00 | 0.00 | 0.00 | 82 | 1015.7 |
| 20260906145726 | 79 | 85 | 0.9 | 7.0 | 0.00 | 0.00 | 0.00 | 84 | 1015.6 |
| 20260906145219 | 79 | 78 | 0.9 | 7.0 | 0.00 | 0.00 | 0.00 | 85 | 1015.6 |
| 20260906144713 | 78 | 90 | 0.9 | 5.2 | 0.00 | 0.00 | 0.00 | 86 | 1015.6 |
| 20260906144438 | 78 | 105 | 0.9 | 5.2 | 0.00 | 0.00 | 0.00 | 86 | 1015.7 |
| 20260906143917 | 78 | 84 | 0.9 | 5.2 | 0.00 | 0.00 | 0.00 | 87 | 1015.6 |
| 20260906143154 | 77 | 78 | 0.9 | 4.3 | 0.00 | 0.00 | 0.00 | 87 | 1015.5 |
| 20260906142649 | 77 | 87 | 0.9 | 3.5 | 0.00 | 0.00 | 0.00 | 87 | 1015.5 |
| 20260906142402 | 77 | 102 | 0.9 | 5.2 | 0.00 | 0.00 | 0.00 | 88 | 1015.6 |
| 20260906141641 | 76 | 90 | 0.9 | 5.2 | 0.00 | 0.00 | 0.00 | 88 | 1015.6 |
| 20260906141140 | 76 | 94 | 0.9 | 4.3 | 0.00 | 0.00 | 0.00 | 88 | 1015.6 |
| 20260906140640 | 76 | 81 | 0.9 | 5.2 | 0.00 | 0.00 | 0.00 | 88 | 1015.6 |
| 20260906140137 | 76 | 101 | 0.9 | 5.2 | 0.00 | 0.00 | 0.00 | 89 | 1015.6 |
| 20260906135637 | 76 | 97 | 0.0 | 3.5 | 0.00 | 0.00 | 0.00 | 90 | 1015.6 |
| 20260906135135 | 76 | 96 | 0.9 | 4.3 | 0.00 | 0.00 | 0.00 | 90 | 1015.6 |
| 20260906134853 | 75 | 94 | 0.9 | 4.3 | 0.00 | 0.00 | 0.00 | 90 | 1015.6 |
| 20260906134356 | 75 | 117 | 0.0 | 3.5 | 0.00 | 0.00 | 0.00 | 90 | 1015.6 |
| 20260906133846 | 75 | 109 | 0.9 | 6.1 | 0.00 | 0.00 | 0.00 | 91 | 1015.4 |
| 20260906133726 | 75 | 108 | 0.9 | 5.2 | 0.00 | 0.00 | 0.00 | 91 | 1015.5 |
| 20260906132636 | 75 | 80 | 0.9 | 6.1 | 0.00 | 0.00 | 0.00 | 91 | 1015.4 |
| 20260906132137 | 75 | 87 | 0.9 | 5.2 | 0.00 | 0.00 | 0.00 | 92 | 1015.4 |
| 20260906131637 | 74 | 80 | 1.7 | 5.2 | 0.00 | 0.00 | 0.00 | 92 | 1015.4 |
| 20260906131136 | 74 | 103 | 0.9 | 3.5 | 0.00 | 0.00 | 0.00 | 93 | 1015.3 |
| 20260906130632 | 74 | 133 | 0.9 | 5.2 | 0.00 | 0.00 | 0.00 | 93 | 1015.3 |
| 20260906130407 | 74 | 110 | 0.9 | 5.2 | 0.00 | 0.00 | 0.00 | 93 | 1015.3 |
| 20260906125632 | 74 | 136 | 0.9 | 3.5 | 0.00 | 0.00 | 0.00 | 94 | 1015.3 |
| 20260906125128 | 74 | 138 | 0.9 | 3.5 | 0.00 | 0.00 | 0.00 | 94 | 1015.2 |
| 20260906124627 | 74 | 105 | 0.9 | 3.5 | 0.00 | 0.00 | 0.00 | 94 | 1015.1 |
| 20260906124128 | 74 | 103 | 0.9 | 3.5 | 0.00 | 0.00 | 0.00 | 94 | 1015.1 |
| 20260906123628 | 74 | 104 | 0.9 | 5.2 | 0.00 | 0.00 | 0.00 | 94 | 1015.0 |
| 20260906123127 | 74 | 95 | 0.9 | 5.2 | 0.00 | 0.00 | 0.00 | 94 | 1015.0 |
| 20260906122627 | 74 | 95 | 0.9 | 6.1 | 0.00 | 0.00 | 0.00 | 94 | 1015.0 |
| 20260906122127 | 74 | 92 | 0.9 | 6.1 | 0.00 | 0.00 | 0.00 | 94 | 1014.9 |
| 20260906121628 | 74 | 92 | 0.9 | 5.2 | 0.00 | 0.00 | 0.00 | 94 | 1014.9 |
| 20260906121127 | 74 | 92 | 0.9 | 5.2 | 0.00 | 0.00 | 0.00 | 94 | 1014.9 |
| 20260906120627 | 74 | 92 | 0.9 | 3.5 | 0.00 | 0.00 | 0.00 | 94 | 1014.9 |
| 20260906120355 | 74 | 92 | 0.9 | 3.5 | 0.00 | 0.00 | 0.00 | 93 | 1014.9 |
| 20260906115626 | 74 | 92 | 0.0 | 2.6 | 0.00 | 0.00 | 0.00 | 93 | 1014.8 |
| 20260906115126 | 74 | 92 | 0.9 | 3.5 | 0.00 | 0.00 | 0.00 | 93 | 1014.8 |
| 20260906114853 | 74 | 92 | 0.9 | 3.5 | 0.00 | 0.00 | 0.00 | 93 | 1014.7 |
| 20260906114353 | 74 | 92 | 0.9 | 3.5 | 0.00 | 0.00 | 0.00 | 93 | 1014.6 |
| 20260906113620 | 74 | 92 | 1.7 | 6.1 | 0.00 | 0.00 | 0.00 | 93 | 1014.5 |
| 20260906113114 | 74 | 91 | 0.9 | 6.1 | 0.00 | 0.00 | 0.00 | 93 | 1014.5 |
| 20260906112607 | 74 | 98 | 0.9 | 3.5 | 0.00 | 0.00 | 0.00 | 93 | 1014.4 |
| 20260906112104 | 74 | 99 | 0.9 | 3.5 | 0.00 | 0.00 | 0.00 | 93 | 1014.4 |
| 20260906111556 | 75 | 99 | 0.0 | 2.6 | 0.00 | 0.00 | 0.00 | 93 | 1014.4 |
| 20260906111049 | 75 | 99 | 0.9 | 5.2 | 0.00 | 0.00 | 0.00 | 93 | 1014.4 |
| 20260906110547 | 75 | 99 | 0.9 | 5.2 | 0.00 | 0.00 | 0.00 | 93 | 1014.4 |
| 20260906110036 | 75 | 99 | 0.9 | 2.6 | 0.00 | 0.00 | 0.00 | 93 | 1014.5 |
| 20260906105530 | 75 | 100 | 0.0 | 2.6 | 0.00 | 0.00 | 0.00 | 93 | 1014.6 |
| 20260906105252 | 75 | 100 | 0.0 | 3.5 | 0.00 | 0.00 | 0.00 | 93 | 1014.6 |
| 20260906104517 | 75 | 100 | 0.0 | 3.5 | 0.00 | 0.00 | 0.00 | 93 | 1014.5 |
| 20260906104012 | 75 | 100 | 0.0 | 1.7 | 0.00 | 0.00 | 0.00 | 93 | 1014.4 |
| 20260906103507 | 75 | 100 | 0.0 | 1.7 | 0.00 | 0.00 | 0.00 | 93 | 1014.4 |
| 20260906102959 | 75 | 100 | 0.0 | 1.7 | 0.00 | 0.00 | 0.00 | 93 | 1014.3 |
| 20260906102453 | 75 | 100 | 0.0 | 1.7 | 0.00 | 0.00 | 0.00 | 93 | 1014.4 |
| 20260906101947 | 75 | 98 | 0.0 | 1.7 | 0.00 | 0.00 | 0.00 | 93 | 1014.4 |
| 20260906101441 | 76 | 98 | 0.0 | 1.7 | 0.00 | 0.00 | 0.00 | 93 | 1014.2 |
| 20260906100936 | 76 | 98 | 0.0 | 2.6 | 0.00 | 0.00 | 0.00 | 93 | 1014.1 |
| 20260906100430 | 76 | 98 | 0.0 | 2.6 | 0.00 | 0.00 | 0.00 | 93 | 1014.1 |
| 20260906095925 | 76 | 98 | 0.0 | 3.5 | 0.00 | 0.00 | 0.00 | 93 | 1014.1 |
| 20260906095419 | 76 | 98 | 0.0 | 5.2 | 0.00 | 0.00 | 0.00 | 93 | 1014.0 |
| 20260906094913 | 76 | 96 | 0.0 | 1.7 | 0.00 | 0.00 | 0.00 | 93 | 1013.9 |
| 20260906094406 | 76 | 96 | 0.0 | 1.7 | 0.00 | 0.00 | 0.00 | 93 | 1014.0 |
| 20260906094120 | 76 | 96 | 0.0 | 1.7 | 0.00 | 0.00 | 0.00 | 93 | 1013.8 |
| 20260906093353 | 76 | 96 | 0.9 | 3.5 | 0.00 | 0.00 | 0.00 | 93 | 1013.8 |
| 20260906092847 | 76 | 96 | 0.9 | 3.5 | 0.00 | 0.00 | 0.00 | 93 | 1013.8 |
| 20260906092341 | 76 | 96 | 0.0 | 1.7 | 0.00 | 0.00 | 0.00 | 93 | 1013.8 |
| 20260906091835 | 76 | 96 | 0.9 | 2.6 | 0.00 | 0.00 | 0.00 | 93 | 1013.8 |
| 20260906091330 | 77 | 96 | 0.9 | 2.6 | 0.00 | 0.00 | 0.00 | 93 | 1013.9 |
| 20260906090824 | 77 | 96 | 0.9 | 6.1 | 0.00 | 0.00 | 0.00 | 93 | 1013.8 |
| 20260906090317 | 77 | 96 | 0.9 | 6.1 | 0.00 | 0.00 | 0.00 | 93 | 1013.7 |
| 20260906085812 | 77 | 96 | 1.7 | 6.1 | 0.00 | 0.00 | 0.00 | 93 | 1013.7 |
| 20260906085307 | 77 | 101 | 1.7 | 6.1 | 0.00 | 0.00 | 0.00 | 93 | 1013.5 |
| 20260906084802 | 77 | 92 | 0.9 | 5.2 | 0.00 | 0.00 | 0.00 | 93 | 1013.4 |
| 20260906084525 | 77 | 93 | 1.7 | 6.1 | 0.00 | 0.00 | 0.00 | 92 | 1013.3 |
| 20260906083748 | 77 | 91 | 0.9 | 6.1 | 0.00 | 0.00 | 0.00 | 92 | 1013.3 |
| 20260906083243 | 77 | 90 | 0.9 | 3.5 | 0.00 | 0.00 | 0.00 | 92 | 1013.3 |
| 20260906082737 | 77 | 90 | 1.7 | 5.2 | 0.00 | 0.00 | 0.00 | 92 | 1013.4 |
| 20260906082231 | 77 | 90 | 1.7 | 5.2 | 0.00 | 0.00 | 0.00 | 92 | 1013.4 |
| 20260906081724 | 77 | 97 | 0.9 | 3.5 | 0.00 | 0.00 | 0.00 | 92 | 1013.3 |
| 20260906081219 | 77 | 97 | 0.9 | 3.5 | 0.00 | 0.00 | 0.00 | 92 | 1013.2 |
| 20260906080713 | 77 | 98 | 0.9 | 5.2 | 0.00 | 0.00 | 0.00 | 92 | 1013.3 |
| 20260906080212 | 77 | 98 | 0.9 | 5.2 | 0.00 | 0.00 | 0.00 | 92 | 1013.3 |
| 20260906075714 | 77 | 96 | 0.9 | 2.6 | 0.00 | 0.00 | 0.00 | 92 | 1013.3 |
| 20260906075212 | 77 | 94 | 0.9 | 5.2 | 0.00 | 0.00 | 0.00 | 92 | 1013.3 |
| 20260906074712 | 78 | 94 | 2.6 | 7.0 | 0.00 | 0.00 | 0.00 | 92 | 1013.3 |
| 20260906074211 | 78 | 94 | 2.6 | 7.0 | 0.00 | 0.00 | 0.00 | 92 | 1013.4 |
| 20260906073717 | 78 | 99 | 1.7 | 7.0 | 0.00 | 0.00 | 0.00 | 92 | 1013.4 |
| 20260906073212 | 78 | 96 | 1.7 | 5.2 | 0.00 | 0.00 | 0.00 | 92 | 1013.4 |
| 20260906072712 | 78 | 96 | 1.7 | 5.2 | 0.00 | 0.00 | 0.00 | 91 | 1013.5 |
| 20260906072212 | 78 | 96 | 1.7 | 7.0 | 0.00 | 0.00 | 0.00 | 91 | 1013.4 |
| 20260906071710 | 78 | 97 | 2.6 | 7.0 | 0.00 | 0.00 | 0.00 | 91 | 1013.4 |
| 20260906071208 | 78 | 95 | 2.6 | 7.0 | 0.00 | 0.00 | 0.00 | 91 | 1013.4 |
| 20260906070705 | 78 | 95 | 3.5 | 7.0 | 0.00 | 0.00 | 0.00 | 91 | 1013.4 |
| 20260906070206 | 78 | 96 | 3.5 | 6.1 | 0.00 | 0.00 | 0.00 | 91 | 1013.5 |
| 20260906065707 | 78 | 97 | 3.5 | 6.1 | 0.00 | 0.00 | 0.00 | 90 | 1013.8 |
| 20260906065206 | 78 | 97 | 2.6 | 5.2 | 0.00 | 0.00 | 0.00 | 90 | 1013.8 |
| 20260906064934 | 78 | 97 | 2.6 | 5.2 | 0.00 | 0.00 | 0.00 | 90 | 1013.8 |
| 20260906064205 | 78 | 97 | 2.6 | 5.2 | 0.00 | 0.00 | 0.00 | 90 | 1013.8 |
| 20260906063710 | 79 | 97 | 2.6 | 3.5 | 0.00 | 0.00 | 0.00 | 89 | 1013.7 |
| 20260906063203 | 79 | 97 | 2.6 | 3.5 | 0.00 | 0.00 | 0.00 | 89 | 1013.8 |
| 20260906062659 | 79 | 97 | 2.6 | 3.5 | 0.00 | 0.00 | 0.00 | 89 | 1013.7 |
| 20260906062153 | 79 | 97 | 2.6 | 3.5 | 0.00 | 0.00 | 0.00 | 88 | 1013.7 |
| 20260906061645 | 79 | 97 | 2.6 | 3.5 | 0.00 | 0.00 | 0.00 | 88 | 1013.7 |
| 20260906061139 | 79 | 97 | 2.6 | 5.2 | 0.00 | 0.00 | 0.00 | 88 | 1013.5 |
| 20260906060633 | 79 | 97 | 2.6 | 5.2 | 0.00 | 0.00 | 0.00 | 87 | 1013.5 |
| 20260906060130 | 80 | 96 | 1.7 | 5.2 | 0.00 | 0.00 | 0.00 | 87 | 1013.7 |
| 20260906055629 | 80 | 96 | 1.7 | 3.5 | 0.00 | 0.00 | 0.00 | 86 | 1013.8 |
| 20260906055128 | 80 | 96 | 2.6 | 3.5 | 0.00 | 0.00 | 0.00 | 86 | 1013.7 |
| 20260906054627 | 80 | 96 | 1.7 | 3.5 | 0.00 | 0.00 | 0.00 | 86 | 1013.7 |
| 20260906054356 | 80 | 96 | 0.9 | 2.6 | 0.00 | 0.00 | 0.00 | 85 | 1013.7 |
| 20260906053627 | 80 | 96 | 0.9 | 1.7 | 0.00 | 0.00 | 0.00 | 85 | 1013.5 |
| 20260906053128 | 80 | 96 | 0.0 | 1.7 | 0.00 | 0.00 | 0.00 | 84 | 1013.5 |
| 20260906052626 | 80 | 96 | 0.0 | 1.7 | 0.00 | 0.00 | 0.00 | 84 | 1013.4 |
| 20260906052125 | 80 | 96 | 0.0 | 2.6 | 0.00 | 0.00 | 0.00 | 84 | 1013.4 |
| 20260906051625 | 80 | 96 | 0.0 | 2.6 | 0.00 | 0.00 | 0.00 | 84 | 1013.4 |
| 20260906051351 | 80 | 96 | 0.0 | 0.0 | 0.00 | 0.00 | 0.00 | 83 | 1013.4 |
| 20260906050626 | 80 | 96 | 0.0 | 0.9 | 0.00 | 0.00 | 0.00 | 83 | 1013.3 |
| 20260906050126 | 81 | 96 | 0.0 | 0.9 | 0.00 | 0.00 | 0.00 | 83 | 1013.2 |
| 20260906045625 | 81 | 96 | 0.0 | 0.9 | 0.00 | 0.00 | 0.00 | 83 | 1013.2 |
| 20260906045123 | 81 | 96 | 0.0 | 0.9 | 0.00 | 0.00 | 0.00 | 83 | 1013.2 |
| 20260906044621 | 81 | 96 | 0.0 | 2.6 | 0.00 | 0.00 | 0.00 | 82 | 1013.2 |
| 20260906044122 | 81 | 96 | 0.0 | 2.6 | 0.00 | 0.00 | 0.00 | 82 | 1013.2 |
| 20260906043620 | 81 | 96 | 0.0 | 2.6 | 0.00 | 0.00 | 0.00 | 82 | 1013.2 |
| 20260906043121 | 81 | 96 | 0.0 | 1.7 | 0.00 | 0.00 | 0.00 | 81 | 1013.2 |
| 20260906042621 | 81 | 96 | 0.0 | 0.9 | 0.00 | 0.00 | 0.00 | 81 | 1013.2 |
| 20260906042340 | 82 | 96 | 0.0 | 1.7 | 0.00 | 0.00 | 0.00 | 81 | 1013.2 |
| 20260906041621 | 82 | 96 | 0.9 | 2.6 | 0.00 | 0.00 | 0.00 | 81 | 1013.2 |
| 20260906041120 | 82 | 96 | 0.9 | 2.6 | 0.00 | 0.00 | 0.00 | 81 | 1013.1 |
| 20260906040844 | 82 | 96 | 0.9 | 2.6 | 0.00 | 0.00 | 0.00 | 81 | 1013.1 |
| 20260906040126 | 82 | 96 | 0.0 | 1.7 | 0.00 | 0.00 | 0.00 | 80 | 1013.0 |
| 20260906035626 | 82 | 96 | 0.0 | 0.9 | 0.00 | 0.00 | 0.00 | 80 | 1012.9 |
| 20260906035126 | 82 | 96 | 0.0 | 0.9 | 0.00 | 0.00 | 0.00 | 80 | 1012.8 |
| 20260906034625 | 82 | 96 | 0.0 | 0.9 | 0.00 | 0.00 | 0.00 | 79 | 1012.7 |
| 20260906034124 | 82 | 96 | 0.9 | 3.5 | 0.00 | 0.00 | 0.00 | 79 | 1012.7 |
| 20260906033622 | 82 | 96 | 0.9 | 3.5 | 0.00 | 0.00 | 0.00 | 79 | 1012.7 |
| 20260906033121 | 82 | 96 | 0.9 | 5.2 | 0.00 | 0.00 | 0.00 | 79 | 1012.6 |
| 20260906032621 | 83 | 96 | 0.9 | 5.2 | 0.00 | 0.00 | 0.00 | 79 | 1012.6 |
| 20260906032119 | 83 | 95 | 0.9 | 3.5 | 0.00 | 0.00 | 0.00 | 78 | 1012.6 |
| 20260906031613 | 83 | 95 | 0.9 | 2.6 | 0.00 | 0.00 | 0.00 | 78 | 1012.5 |
| 20260906031112 | 83 | 95 | 0.9 | 6.1 | 0.00 | 0.00 | 0.00 | 78 | 1012.4 |
| 20260906030613 | 83 | 95 | 0.9 | 6.1 | 0.00 | 0.00 | 0.00 | 77 | 1012.4 |
| 20260906030110 | 83 | 93 | 1.7 | 3.5 | 0.00 | 0.00 | 0.00 | 77 | 1012.3 |
| 20260906025608 | 83 | 92 | 2.6 | 5.2 | 0.00 | 0.00 | 0.00 | 77 | 1012.4 |
| 20260906025108 | 83 | 92 | 2.6 | 5.2 | 0.00 | 0.00 | 0.00 | 77 | 1012.4 |
| 20260906024608 | 83 | 92 | 2.6 | 5.2 | 0.00 | 0.00 | 0.00 | 76 | 1012.3 |
| 20260906024333 | 83 | 92 | 1.7 | 5.2 | 0.00 | 0.00 | 0.00 | 76 | 1012.3 |
| 20260906023612 | 84 | 92 | 1.7 | 5.2 | 0.00 | 0.00 | 0.00 | 75 | 1012.2 |
| 20260906023106 | 84 | 92 | 2.6 | 5.2 | 0.00 | 0.00 | 0.00 | 75 | 1012.1 |
| 20260906022604 | 84 | 92 | 2.6 | 5.2 | 0.00 | 0.00 | 0.00 | 74 | 1012.1 |
| 20260906022104 | 84 | 91 | 2.6 | 3.5 | 0.00 | 0.00 | 0.00 | 74 | 1012.0 |
| 20260906021605 | 84 | 90 | 2.6 | 3.5 | 0.00 | 0.00 | 0.00 | 74 | 1012.0 |
| 20260906021102 | 84 | 90 | 2.6 | 3.5 | 0.00 | 0.00 | 0.00 | 73 | 1012.0 |
| 20260906020600 | 84 | 91 | 1.7 | 3.5 | 0.00 | 0.00 | 0.00 | 73 | 1011.9 |
| 20260906015602 | 85 | 90 | 1.7 | 3.5 | 0.00 | 0.00 | 0.00 | 72 | 1011.7 |
| 20260906015058 | 85 | 90 | 1.7 | 3.5 | 0.00 | 0.00 | 0.00 | 72 | 1011.6 |
| 20260906014557 | 85 | 89 | 1.7 | 3.5 | 0.00 | 0.00 | 0.00 | 72 | 1011.6 |
| 20260906014054 | 86 | 89 | 1.7 | 3.5 | 0.00 | 0.00 | 0.00 | 71 | 1011.6 |
| 20260906013601 | 86 | 89 | 0.9 | 1.7 | 0.00 | 0.00 | 0.00 | 70 | 1011.5 |
| 20260906013055 | 87 | 89 | 0.0 | 1.7 | 0.00 | 0.00 | 0.00 | 69 | 1011.5 |
| 20260906012547 | 87 | 89 | 0.9 | 2.6 | 0.00 | 0.00 | 0.00 | 69 | 1011.5 |
| 20260906012041 | 87 | 89 | 0.9 | 2.6 | 0.00 | 0.00 | 0.00 | 69 | 1011.5 |
| 20260906011535 | 87 | 89 | 0.0 | 0.0 | 0.00 | 0.00 | 0.00 | 69 | 1011.4 |
| 20260906011254 | 87 | 89 | 0.0 | 1.7 | 0.00 | 0.00 | 0.00 | 68 | 1011.3 |
| 20260906010523 | 87 | 89 | 0.9 | 1.7 | 0.00 | 0.00 | 0.00 | 68 | 1011.3 |
| 20260906010254 | 87 | 89 | 1.7 | 2.6 | 0.00 | 0.00 | 0.00 | 68 | 1011.3 |
| 20260906005511 | 88 | 89 | 1.7 | 2.6 | 0.00 | 0.00 | 0.00 | 67 | 1011.3 |
| 20260906005005 | 89 | 89 | 0.9 | 1.7 | 0.00 | 0.00 | 0.00 | 67 | 1011.2 |
| 20260906004501 | 89 | 89 | 0.0 | 1.7 | 0.00 | 0.00 | 0.00 | 67 | 1011.2 |
| 20260906004442 | 90 | 89 | 0.0 | 0.0 | 0.00 | 0.00 | 0.00 | 67 | 1011.2 |
| 20260906003448 | 90 | 89 | 0.0 | 0.0 | 0.00 | 0.00 | 0.00 | 64 | 1011.1 |
| 20260906002941 | 91 | 89 | 0.0 | 0.0 | 0.00 | 0.00 | 0.00 | 64 | 1011.1 |
| 20260906002437 | 91 | 89 | 0.0 | 0.9 | 0.00 | 0.00 | 0.00 | 63 | 1011.2 |
| 20260906001929 | 91 | 89 | 0.0 | 0.9 | 0.00 | 0.00 | 0.00 | 62 | 1011.2 |
| 20260906001423 | 91 | 89 | 0.0 | 0.9 | 0.00 | 0.00 | 0.00 | 61 | 1011.3 |
| 20260906000918 | 91 | 89 | 0.0 | 1.7 | 0.00 | 0.00 | 0.00 | 61 | 1011.3 |
| 20260906000413 | 92 | 89 | 0.9 | 1.7 | 0.00 | 0.00 | 0.00 | 60 | 1011.3 |
| 20260906000129 | 92 | 89 | 1.7 | 2.6 | 0.00 | 0.00 | 0.00 | 59 | 1011.3 |
| 20260905235401 | 92 | 89 | 1.7 | 3.5 | 0.00 | 0.00 | 0.00 | 59 | 1011.3 |
| 20260905235115 | 92 | 89 | 1.7 | 3.5 | 0.00 | 0.00 | 0.00 | 58 | 1011.3 |
| 20260905234347 | 92 | 89 | 1.7 | 3.5 | 0.00 | 0.00 | 0.00 | 57 | 1011.3 |
| 20260905233841 | 92 | 89 | 1.7 | 5.2 | 0.00 | 0.00 | 0.00 | 57 | 1011.3 |
| 20260905233335 | 92 | 89 | 2.6 | 5.2 | 0.00 | 0.00 | 0.00 | 56 | 1011.3 |
| 20260905232829 | 92 | 88 | 2.6 | 6.1 | 0.00 | 0.00 | 0.00 | 56 | 1011.3 |
| 20260905232323 | 93 | 88 | 2.6 | 7.8 | 0.00 | 0.00 | 0.00 | 55 | 1011.2 |
| 20260905231817 | 93 | 92 | 2.6 | 7.8 | 0.00 | 0.00 | 0.00 | 55 | 1011.2 |
| 20260905231311 | 93 | 88 | 2.6 | 6.1 | 0.00 | 0.00 | 0.00 | 54 | 1011.3 |
| 20260905231028 | 93 | 88 | 2.6 | 7.0 | 0.00 | 0.00 | 0.00 | 55 | 1011.2 |
| 20260905230259 | 93 | 87 | 3.5 | 7.0 | 0.00 | 0.00 | 0.00 | 54 | 1011.1 |
| 20260905230025 | 94 | 88 | 3.5 | 7.0 | 0.00 | 0.00 | 0.00 | 53 | 1011.0 |
| 20260905225247 | 94 | 88 | 3.5 | 7.0 | 0.00 | 0.00 | 0.00 | 54 | 1011.0 |
| 20260905224741 | 94 | 89 | 4.3 | 10.4 | 0.00 | 0.00 | 0.00 | 52 | 1011.0 |
| 20260905224729 | 95 | 86 | 4.3 | 10.4 | 0.00 | 0.00 | 0.00 | 50 | 1011.0 |
| 20260905223729 | 96 | 91 | 3.5 | 7.8 | 0.00 | 0.00 | 0.00 | 49 | 1011.0 |
| 20260905223223 | 96 | 86 | 1.7 | 7.0 | 0.00 | 0.00 | 0.00 | 48 | 1011.0 |
| 20260905222717 | 97 | 88 | 1.7 | 4.3 | 0.00 | 0.00 | 0.00 | 46 | 1011.0 |
| 20260905222656 | 97 | 67 | 1.7 | 4.3 | 0.00 | 0.00 | 0.00 | 48 | 1011.0 |
| 20260905221709 | 97 | 63 | 1.7 | 3.5 | 0.00 | 0.00 | 0.00 | 46 | 1010.9 |
| 20260905221208 | 96 | 63 | 1.7 | 3.5 | 0.00 | 0.00 | 0.00 | 47 | 1011.0 |
| 20260905220927 | 96 | 63 | 0.9 | 3.5 | 0.00 | 0.00 | 0.00 | 48 | 1011.0 |
| 20260905220203 | 95 | 63 | 1.7 | 3.5 | 0.00 | 0.00 | 0.00 | 52 | 1011.0 |
| 20260905215704 | 95 | 69 | 1.7 | 4.3 | 0.00 | 0.00 | 0.00 | 53 | 1010.9 |
| 20260905215204 | 94 | 69 | 2.6 | 4.3 | 0.00 | 0.00 | 0.00 | 54 | 1011.0 |
| 20260905214703 | 94 | 76 | 2.6 | 4.3 | 0.00 | 0.00 | 0.00 | 55 | 1011.0 |
| 20260905214200 | 94 | 75 | 2.6 | 6.1 | 0.00 | 0.00 | 0.00 | 55 | 1011.1 |
| 20260905213700 | 94 | 76 | 2.6 | 6.1 | 0.00 | 0.00 | 0.00 | 54 | 1011.1 |
| 20260905213159 | 94 | 0 | 1.7 | 4.3 | 0.00 | 0.00 | 0.00 | 54 | 1011.2 |
| 20260905213150 | 94 | 355 | 1.7 | 3.5 | 0.00 | 0.00 | 0.00 | 54 | 1011.3 |
| 20260905212200 | 95 | 355 | 1.7 | 3.5 | 0.00 | 0.00 | 0.00 | 52 | 1011.4 |
| 20260905211658 | 96 | 355 | 1.7 | 2.6 | 0.00 | 0.00 | 0.00 | 50 | 1011.4 |
| 20260905211155 | 96 | 355 | 1.7 | 2.6 | 0.00 | 0.00 | 0.00 | 50 | 1011.5 |
| 20260905210656 | 97 | 355 | 1.7 | 3.5 | 0.00 | 0.00 | 0.00 | 48 | 1011.6 |
| 20260905210159 | 98 | 355 | 2.6 | 5.2 | 0.00 | 0.00 | 0.00 | 46 | 1011.6 |
| 20260905205654 | 98 | 351 | 2.6 | 5.2 | 0.00 | 0.00 | 0.00 | 44 | 1011.7 |
| 20260905205151 | 98 | 355 | 1.7 | 4.3 | 0.00 | 0.00 | 0.00 | 45 | 1011.7 |
| 20260905204922 | 99 | 344 | 1.7 | 4.3 | 0.00 | 0.00 | 0.00 | 45 | 1011.8 |
| 20260905204151 | 99 | 342 | 1.7 | 4.3 | 0.00 | 0.00 | 0.00 | 45 | 1011.8 |
| 20260905203912 | 99 | 338 | 1.7 | 7.8 | 0.00 | 0.00 | 0.00 | 46 | 1011.9 |
| 20260905203152 | 99 | 338 | 2.6 | 7.8 | 0.00 | 0.00 | 0.00 | 47 | 1012.0 |
| 20260905202650 | 98 | 5 | 2.6 | 7.0 | 0.00 | 0.00 | 0.00 | 46 | 1012.0 |
| 20260905202150 | 98 | 346 | 3.5 | 8.7 | 0.00 | 0.00 | 0.00 | 47 | 1012.0 |
| 20260905201918 | 98 | 345 | 3.5 | 8.7 | 0.00 | 0.00 | 0.00 | 47 | 1012.1 |
| 20260905201149 | 97 | 342 | 2.6 | 7.0 | 0.00 | 0.00 | 0.00 | 49 | 1012.0 |
| 20260905200649 | 96 | 67 | 3.5 | 7.0 | 0.00 | 0.00 | 0.00 | 50 | 1012.2 |
| 20260905200413 | 96 | 46 | 3.5 | 7.0 | 0.00 | 0.00 | 0.00 | 50 | 1012.2 |
| 20260905195650 | 96 | 64 | 2.6 | 6.1 | 0.00 | 0.00 | 0.00 | 50 | 1012.3 |
| 20260905195150 | 96 | 52 | 1.7 | 4.3 | 0.00 | 0.00 | 0.00 | 51 | 1012.3 |
| 20260905194650 | 96 | 54 | 2.6 | 5.2 | 0.00 | 0.00 | 0.00 | 49 | 1012.3 |
| 20260905194150 | 96 | 59 | 3.5 | 7.0 | 0.00 | 0.00 | 0.00 | 48 | 1012.4 |
| 20260905193651 | 97 | 69 | 2.6 | 7.0 | 0.00 | 0.00 | 0.00 | 46 | 1012.4 |
| 20260905193149 | 98 | 63 | 2.6 | 6.1 | 0.00 | 0.00 | 0.00 | 48 | 1012.4 |
| 20260905192652 | 98 | 56 | 2.6 | 4.3 | 0.00 | 0.00 | 0.00 | 46 | 1012.4 |
| 20260905192156 | 98 | 58 | 2.6 | 7.0 | 0.00 | 0.00 | 0.00 | 46 | 1012.5 |
| 20260905191655 | 98 | 33 | 2.6 | 7.0 | 0.00 | 0.00 | 0.00 | 46 | 1012.5 |
| 20260905191147 | 98 | 343 | 2.6 | 5.2 | 0.00 | 0.00 | 0.00 | 46 | 1012.6 |
| 20260905190647 | 98 | 331 | 3.5 | 7.8 | 0.00 | 0.00 | 0.00 | 46 | 1012.7 |
| 20260905190151 | 97 | 296 | 3.5 | 7.8 | 0.00 | 0.00 | 0.00 | 45 | 1012.8 |
| 20260905185906 | 97 | 330 | 2.6 | 7.0 | 0.00 | 0.00 | 0.00 | 47 | 1012.8 |
| 20260905184644 | 96 | 325 | 3.5 | 5.2 | 0.00 | 0.00 | 0.00 | 47 | 1012.9 |
| 20260905184141 | 96 | 332 | 3.5 | 7.0 | 0.00 | 0.00 | 0.00 | 47 | 1012.9 |
| 20260905183640 | 97 | 292 | 3.5 | 7.0 | 0.00 | 0.00 | 0.00 | 48 | 1013.0 |
| 20260905183142 | 97 | 288 | 2.6 | 6.1 | 0.00 | 0.00 | 0.00 | 46 | 1013.0 |
| 20260905182640 | 97 | 317 | 2.6 | 7.0 | 0.00 | 0.00 | 0.00 | 47 | 1012.9 |
| 20260905182139 | 97 | 41 | 2.6 | 7.0 | 0.00 | 0.00 | 0.00 | 47 | 1012.9 |
| 20260905181640 | 97 | 296 | 2.6 | 5.2 | 0.00 | 0.00 | 0.00 | 47 | 1012.8 |
| 20260905181404 | 97 | 301 | 2.6 | 6.1 | 0.00 | 0.00 | 0.00 | 45 | 1012.8 |
| 20260905180646 | 97 | 311 | 3.5 | 7.0 | 0.00 | 0.00 | 0.00 | 45 | 1012.9 |
| 20260905180143 | 97 | 320 | 3.5 | 7.0 | 0.00 | 0.00 | 0.00 | 44 | 1012.9 |
| 20260905175654 | 97 | 313 | 3.5 | 6.1 | 0.00 | 0.00 | 0.00 | 44 | 1012.9 |
| 20260905175139 | 97 | 317 | 2.6 | 6.1 | 0.00 | 0.00 | 0.00 | 44 | 1013.0 |
| 20260905174638 | 97 | 309 | 2.6 | 6.1 | 0.00 | 0.00 | 0.00 | 44 | 1013.0 |
| 20260905174358 | 97 | 295 | 2.6 | 6.1 | 0.00 | 0.00 | 0.00 | 45 | 1013.0 |
| 20260905173626 | 97 | 304 | 3.5 | 7.0 | 0.00 | 0.00 | 0.00 | 44 | 1013.1 |
| 20260905173120 | 96 | 275 | 2.6 | 7.0 | 0.00 | 0.00 | 0.00 | 45 | 1013.1 |
| 20260905172614 | 96 | 285 | 2.6 | 6.1 | 0.00 | 0.00 | 0.00 | 48 | 1013.2 |
| 20260905172108 | 96 | 284 | 2.6 | 6.1 | 0.00 | 0.00 | 0.00 | 48 | 1013.2 |
| 20260905171603 | 96 | 282 | 3.5 | 7.0 | 0.00 | 0.00 | 0.00 | 48 | 1013.3 |
| 20260905171056 | 96 | 285 | 3.5 | 7.0 | 0.00 | 0.00 | 0.00 | 46 | 1013.3 |
| 20260905170550 | 96 | 273 | 3.5 | 7.0 | 0.00 | 0.00 | 0.00 | 46 | 1013.4 |
| 20260905170045 | 95 | 273 | 3.5 | 7.0 | 0.00 | 0.00 | 0.00 | 46 | 1013.4 |
| 20260905165551 | 96 | 281 | 2.6 | 7.0 | 0.00 | 0.00 | 0.00 | 47 | 1013.4 |
| 20260905165033 | 95 | 277 | 2.6 | 6.1 | 0.00 | 0.00 | 0.00 | 51 | 1013.5 |
| 20260905164526 | 95 | 276 | 3.5 | 7.8 | 0.00 | 0.00 | 0.00 | 50 | 1013.7 |
| 20260905164020 | 95 | 276 | 3.5 | 7.8 | 0.00 | 0.00 | 0.00 | 49 | 1013.7 |
| 20260905163739 | 95 | 315 | 2.6 | 7.0 | 0.00 | 0.00 | 0.00 | 53 | 1013.7 |
| 20260905163008 | 94 | 298 | 3.5 | 7.0 | 0.00 | 0.00 | 0.00 | 53 | 1013.7 |
| 20260905162502 | 94 | 292 | 2.6 | 6.1 | 0.00 | 0.00 | 0.00 | 52 | 1013.5 |
| 20260905162219 | 94 | 273 | 2.6 | 7.0 | 0.00 | 0.00 | 0.00 | 53 | 1013.7 |
| 20260905161450 | 93 | 271 | 3.5 | 7.0 | 0.00 | 0.00 | 0.00 | 54 | 1013.7 |
| 20260905160947 | 93 | 317 | 3.5 | 7.0 | 0.00 | 0.00 | 0.00 | 53 | 1013.8 |
| 20260905160439 | 93 | 292 | 3.5 | 7.8 | 0.00 | 0.00 | 0.00 | 54 | 1013.8 |
| 20260905155934 | 93 | 280 | 3.5 | 7.0 | 0.00 | 0.00 | 0.00 | 54 | 1013.7 |